Change the Weather History Date:

Friday, February 8, 2013

  Actual Average Record
Temperature  
Mean Temperature 28 °F -  
Max Temperature 32 °F - - ()
Min Temperature 23 °F - - ()
Degree Days  
Heating Degree Days 38    
Moisture  
Dew Point 25 °F    
Average Humidity 86    
Maximum Humidity 93    
Minimum Humidity 69    
Precipitation  
Precipitation 0.00 in - - ()
Sea Level Pressure  
Sea Level Pressure 29.83 in    
Wind  
Wind Speed 3 mph ()    
Max Wind Speed 7 mph    
Max Gust Speed -    
Visibility 5.8 miles    
Events Snow    
T = Trace of Precipitation, MM = Missing Value Source: Averaged Metar Reports

Daily Weather History Graph

Daily Weather History Graph

Search for Another Location

Airport or City:

Trip Planner

Search our weather history database for the weather conditions in past years. The results will help you decide how hot, cold, wet, or windy it might be!

Date:

Astronomy

Feb. 08, 2013 Rise Set
Actual Time 7:19 AM CET 5:03 PM CET
Civil Twilight 6:45 AM CET 5:37 PM CET
Nautical Twilight 6:07 AM CET 6:15 PM CET
Astronomical Twilight 5:29 AM CET 6:53 PM CET
Moon 5:41 AM CET (2/8) 3:11 PM CET (2/8)
Length of Visible Light 10h 51m
Length of Day
9h 43m
Waning Crescent, 5% of the Moon is Illuminated
Feb 8
Waning Crescent
Feb 10
New
Feb 17
First Quarter
Feb 25
Full
Mar 4
Last Quarter

Hourly Weather History & Observations

Time (CET) Temp. Windchill Dew Point Humidity Pressure Visibility Wind Dir Wind Speed Gust Speed Precip Events Conditions
12:00 AM 28.4 °F 23.3 °F 26.6 °F 93% 29.77 in 6.2 mi West 4.6 mph - N/A   Mostly Cloudy
1:00 AM 28.4 °F - 24.8 °F 86% 29.77 in 6.2 mi Variable 2.3 mph - N/A   Overcast
2:00 AM 30.2 °F 25.4 °F 26.6 °F 86% 29.80 in 6.2 mi West 4.6 mph - N/A Snow Light Snow Showers
3:00 AM 28.4 °F 24.6 °F 24.8 °F 86% 29.80 in 6.2 mi West 3.5 mph - N/A   Mostly Cloudy
4:00 AM 26.6 °F - 23.0 °F 86% 29.80 in 6.2 mi SW 2.3 mph - N/A   Mostly Cloudy
5:00 AM 28.4 °F 24.6 °F 24.8 °F 86% 29.80 in 6.2 mi WNW 3.5 mph - N/A Snow Light Snow Showers
5:09 AM 28.4 °F 24.6 °F 26.6 °F 93% 29.80 in 2.5 mi West 3.5 mph - N/A Snow Light Snow Showers
5:38 AM 28.4 °F - 26.6 °F 93% 29.80 in 5.0 mi WNW 2.3 mph - N/A   Mostly Cloudy
6:00 AM 28.4 °F - 26.6 °F 93% 29.80 in 6.2 mi West 1.2 mph - N/A   Mostly Cloudy
7:00 AM 28.4 °F 21.2 °F 26.6 °F 93% 29.80 in 6.2 mi West 6.9 mph - N/A   Mostly Cloudy
8:00 AM 28.4 °F 21.2 °F 26.6 °F 93% 29.83 in 6.2 mi West 6.9 mph - N/A Snow Light Snow
8:05 AM 28.4 °F 22.2 °F 26.6 °F 93% 29.83 in 3.7 mi West 5.8 mph - N/A Snow Light Snow
9:00 AM 28.4 °F 23.3 °F 26.6 °F 93% 29.83 in 6.2 mi West 4.6 mph - N/A   Scattered Clouds
10:00 AM 30.2 °F 23.4 °F 26.6 °F 86% 29.83 in 6.2 mi WSW 6.9 mph - N/A   Mostly Cloudy
11:00 AM 32.0 °F - 26.6 °F 80% 29.83 in 6.2 mi Variable 1.2 mph - N/A   Scattered Clouds
12:00 PM 32.0 °F 27.5 °F 23.0 °F 69% 29.83 in 6.2 mi West 4.6 mph - N/A   Mostly Cloudy
1:00 PM 32.0 °F 26.4 °F 23.0 °F 69% 29.83 in 6.2 mi NW 5.8 mph - N/A   Mostly Cloudy
2:00 PM 32.0 °F 28.7 °F 23.0 °F 69% 29.83 in 6.2 mi WSW 3.5 mph - N/A   Mostly Cloudy
3:00 PM 32.0 °F - 24.8 °F 75% 29.86 in 6.2 mi Variable 2.3 mph - N/A Snow Light Snow Showers
4:00 PM 32.0 °F - 23.0 °F 69% 29.86 in 6.2 mi Variable 1.2 mph - N/A   Mostly Cloudy
5:00 PM 30.2 °F - 24.8 °F 80% 29.86 in - ESE 2.3 mph - N/A   Clear
6:00 PM 28.4 °F - 24.8 °F 86% 29.86 in - Calm Calm - N/A   Clear
7:00 PM 26.6 °F - 24.8 °F 93% 29.89 in - Calm Calm - N/A   Clear
8:00 PM 26.6 °F - 23.0 °F 86% 29.89 in - SSW 2.3 mph - N/A   Clear
9:00 PM 24.8 °F - 23.0 °F 93% 29.89 in - Calm Calm - N/A   Clear
10:05 PM 23.0 °F - 21.2 °F 93% 29.89 in - Calm Calm - N/A   Clear
11:00 PM 23.0 °F - 21.2 °F 93% 29.92 in 6.2 mi Calm Calm - N/A   Overcast